Location: Mentone
(34.5413°N, 85.5351°W)
Time: 00:10:43
(UTC-06:00)

Vanguard 3 - All Passes

Search period start: 14 December 2017 00:00
Search period end: 24 December 2017 00:00
Orbit: 509 x 3263 km, 33.3° (Epoch: 13 December)

Date Brightness Start Highest point End Pass type
(mag) Time Alt. Az. Time Alt. Az. Time Alt. Az.
14 Dec - 09:24:07 10° SSW 09:28:35 17° SSE 09:31:57 10° ESE daylight
14 Dec - 11:35:28 10° WSW 11:40:20 45° SSE 11:43:59 10° E daylight
14 Dec - 13:47:45 10° W 13:51:32 76° S 13:55:25 10° E daylight
14 Dec - 15:59:07 10° W 16:02:46 39° SSW 16:07:45 10° SE daylight
14 Dec - 18:11:41 10° SW 18:14:40 15° SSW 18:18:25 10° S visible
15 Dec - 08:11:38 10° S 08:14:31 12° SSE 08:17:00 10° SE daylight
15 Dec - 10:21:09 10° SW 10:26:55 32° SSE 10:30:51 10° E daylight
15 Dec - 12:33:54 10° WSW 12:38:20 70° S 12:41:59 10° E daylight
15 Dec - 14:45:54 10° W 14:49:30 56° SSW 14:53:42 10° ESE daylight
15 Dec - 16:57:36 10° WSW 17:00:54 21° SSW 17:05:16 10° SSE visible
16 Dec - 09:06:49 10° SSW 09:13:11 24° SSE 09:17:32 10° ESE daylight
16 Dec - 11:19:29 10° WSW 11:25:03 55° SSE 11:28:54 10° E daylight
16 Dec - 13:32:22 10° W 13:36:19 73° S 13:40:03 10° E daylight
16 Dec - 15:44:07 10° W 15:47:28 30° SSW 15:51:41 10° SE daylight
17 Dec - 07:52:55 10° SSW 07:59:03 18° SSE 08:03:34 10° ESE daylight
17 Dec - 10:04:39 10° SW 10:11:34 42° SSE 10:15:56 10° E daylight
17 Dec - 12:18:14 10° W 12:23:06 76° S 12:26:48 10° E daylight
17 Dec - 14:30:40 10° W 14:34:15 47° SSW 14:38:06 10° ESE daylight
17 Dec - 16:43:13 10° WSW 16:45:33 14° SSW 16:48:18 10° S daylight
18 Dec - 06:40:29 10° S 06:44:29 12° SSE 06:47:53 10° SE daylight
18 Dec - 08:49:41 10° SW 08:57:44 32° SSE 09:02:49 10° E daylight
18 Dec - 11:03:26 10° WSW 11:09:45 65° S 11:13:51 10° E daylight
18 Dec - 13:16:53 10° W 13:21:06 68° S 13:24:44 10° ESE daylight
18 Dec - 15:29:09 10° WSW 15:32:09 23° SSW 15:35:35 10° SSE daylight
19 Dec - 07:34:57 10° SSW 07:43:30 24° SSE 07:49:13 10° ESE daylight
19 Dec - 09:48:08 10° WSW 09:56:10 52° SSE 10:00:58 10° E daylight
19 Dec - 12:02:28 10° W 12:07:50 78° S 12:11:39 10° E daylight
19 Dec - 14:15:23 10° W 14:18:59 39° SSW 14:22:32 10° SE daylight
20 Dec - 06:21:02 10° S 06:28:49 18° SSE 06:34:37 10° ESE visible
20 Dec - 08:32:37 10° SW 08:42:14 40° SSE 08:47:56 10° E daylight
20 Dec - 10:47:19 10° WSW 10:54:24 73° S 10:58:46 10° E daylight
20 Dec - 13:01:18 10° W 13:05:51 63° S 13:09:28 10° ESE daylight
20 Dec - 15:14:18 10° WSW 15:16:47 17° SSW 15:19:25 10° SSE daylight
21 Dec - 05:09:42 10° SSE 05:13:43 12° SSE 05:17:16 10° SE visible
21 Dec - 07:17:14 10° SSW 07:27:52 31° SSE 07:34:32 10° E daylight
21 Dec - 09:31:34 10° WSW 09:40:42 61° SSE 09:45:56 10° E daylight
21 Dec - 11:46:35 10° W 11:52:33 78° S 11:56:32 10° E daylight
21 Dec - 14:00:02 10° W 14:03:40 32° SSW 14:06:59 10° SE daylight
22 Dec - 06:02:29 10° SSW 06:13:03 24° SSE 06:20:22 10° ESE visible
22 Dec - 08:15:33 10° SW 08:26:38 49° SSE 08:32:58 10° E daylight
22 Dec - 10:31:05 10° W 10:39:01 78° S 10:43:42 10° E daylight
22 Dec - 12:45:37 10° W 12:50:33 56° SSW 12:54:13 10° ESE daylight
22 Dec - 14:59:42 10° SW 15:01:21 12° SSW 15:03:01 10° S daylight
23 Dec - 04:49:13 10° S 04:57:48 16° SSE 05:04:36 10° ESE visible
23 Dec - 06:59:37 10° SW 07:12:07 39° SSE 07:19:38 10° E daylight
23 Dec - 09:14:56 10° WSW 09:25:11 69° S 09:30:52 10° E daylight
23 Dec - 11:30:35 10° W 11:37:14 77° S 11:41:25 10° E daylight
23 Dec - 13:44:38 10° W 13:48:17 26° SSW 13:51:25 10° SSE daylight
